Piloten Info

Wichtige Hinweise:

  • Neue Tower Frequenz 122,330 kHz - keine Landung ohne Funkkontakt
  • PPR Betrieb
  • Temporäre Hindernisse (Baukräne) nahe dem Flugplatz durch Bauarbeiten entlang der Nürnberger Straße (Östliche Seite).
  • Starts auf RWY 09 sind nicht gestattet. Start generell auf RWY 27. Bei Planung Rückenwinde berücksichtigen!
  • Bei Anflügen auf RWY 27 sind Hindernisse vorhanden, aus diesem Grund die versetzte Schwelle27!
  • Der Flugverein Neumarkt führt seine Starts generell auf RWY 27 und Landungen auf RWY09 durch.
  • Es besteht keine Tankmöglichkeit.

Diese Hinweis sind als Ergänzung / Hilfe zur regulären Flugplanung gedacht.

Auszüge aus AIP VFR ohne Gewähr - es gelten die offiziellen Veröffentlichungen.







METAR Informationen der nächstgelegenen Flughäfen


EDDN / Flughafen Nürnberg „Albrecht Dürer“

EDDN 211350Z 31007KT 280V340 9999 -RA FEW004 BKN009 BKN040 14/14 Q1007 TEMPO 4000 SHRA BKN020CB

ETIC / Fliegerhorst Grafenwöhr AAF

ETIC 211335Z AUTO 24003KT 9999 -DZ FEW015 SCT026 SCT031 OVC075 15/15 A2971 RMK AO2 RAE1257DZB1257E1258RAB01E19DZB34 SLP059 $

ETIH / Fliegerhorst Hohenfels AAF

ETIH 211256Z AUTO 24004KT 9999 OVC012 14/14 A2974 RMK AO2 SLP070 T01410141 $